Time,TemperatureF,DewpointF,PressureIn,WindDirection,WindDirectionDegrees,WindSpeedMPH,WindSpeedGustMPH,Humidity,HourlyPrecipIn,Conditions,Clouds,dailyrainin,SolarRadiationWatts/m^2,SoftwareType,DateUTC
2013-02-13 00:08:00,28.9,27.0,30.04,North,6,0.0,-999.0,91,-99.99,,,0.00,0,weatherlink.com 1.10,2013-02-12 23:08:00,
2013-02-13 00:24:00,29.0,27.0,30.05,NE,39,0.0,-999.0,91,-99.99,,,0.00,0,weatherlink.com 1.10,2013-02-12 23:24:00,
2013-02-13 00:39:00,29.0,27.0,30.05,NE,39,0.0,-999.0,91,-99.99,,,0.00,0,weatherlink.com 1.10,2013-02-12 23:39:00,
2013-02-13 00:54:00,29.0,27.0,30.05,SE,137,0.0,-999.0,91,-99.99,,,0.00,0,weatherlink.com 1.10,2013-02-12 23:54:00,
2013-02-13 01:09:00,28.8,27.0,30.05,NE,44,0.0,-999.0,91,-99.99,,,0.00,0,weatherlink.com 1.10,2013-02-13 00:09:00,
2013-02-13 01:24:00,28.7,26.0,30.06,ENE,60,0.0,-999.0,91,-99.99,,,0.00,0,weatherlink.com 1.10,2013-02-13 00:24:00,
2013-02-13 01:39:00,28.6,26.0,30.07,ENE,62,0.0,-999.0,91,-99.99,,,0.00,0,weatherlink.com 1.10,2013-02-13 00:39:00,
2013-02-13 01:54:00,28.5,26.0,30.07,North,356,1.0,-999.0,91,-99.99,,,0.00,0,weatherlink.com 1.10,2013-02-13 00:54:00,
2013-02-13 02:09:00,28.5,26.0,30.07,ESE,119,0.0,-999.0,91,-99.99,,,0.00,0,weatherlink.com 1.10,2013-02-13 01:09:00,
2013-02-13 02:24:00,28.4,26.0,30.07,SE,135,0.0,-999.0,91,-99.99,,,0.00,0,weatherlink.com 1.10,2013-02-13 01:24:00,
2013-02-13 02:39:00,28.4,26.0,30.07,SE,136,0.0,-999.0,91,-99.99,,,0.00,0,weatherlink.com 1.10,2013-02-13 01:39:00,
2013-02-13 02:52:00,28.4,26.0,30.07,SE,135,0.0,-999.0,91,-99.99,,,0.00,0,weatherlink.com 1.10,2013-02-13 01:52:00,
2013-02-13 03:09:00,28.4,26.0,30.08,SE,135,0.0,-999.0,91,-99.99,,,0.00,0,weatherlink.com 1.10,2013-02-13 02:09:00,
2013-02-13 03:24:00,28.3,26.0,30.08,ESE,121,1.0,-999.0,91,-99.99,,,0.00,0,weatherlink.com 1.10,2013-02-13 02:24:00,
2013-02-13 03:38:00,28.3,26.0,30.08,ESE,106,1.0,-999.0,91,-99.99,,,0.00,0,weatherlink.com 1.10,2013-02-13 02:38:00,
2013-02-13 03:54:00,28.3,26.0,30.09,SE,130,0.0,-999.0,91,-99.99,,,0.00,0,weatherlink.com 1.10,2013-02-13 02:54:00,
2013-02-13 04:09:00,28.3,26.0,30.09,East,99,0.0,-999.0,91,-99.99,,,0.00,0,weatherlink.com 1.10,2013-02-13 03:09:00,
2013-02-13 04:22:00,28.3,26.0,30.10,East,99,0.0,-999.0,91,-99.99,,,0.00,0,weatherlink.com 1.10,2013-02-13 03:22:00,
2013-02-13 04:39:00,28.3,26.0,30.11,ESE,117,1.0,-999.0,91,-99.99,,,0.00,0,weatherlink.com 1.10,2013-02-13 03:39:00,
2013-02-13 04:54:00,28.2,26.0,30.12,East,94,0.0,-999.0,91,-99.99,,,0.00,0,weatherlink.com 1.10,2013-02-13 03:54:00,
2013-02-13 05:08:00,28.2,26.0,30.12,SE,139,1.0,-999.0,91,-99.99,,,0.00,0,weatherlink.com 1.10,2013-02-13 04:08:00,
2013-02-13 05:24:00,28.2,26.0,30.12,NNE,14,0.0,-999.0,91,-99.99,,,0.00,0,weatherlink.com 1.10,2013-02-13 04:24:00,
2013-02-13 05:39:00,28.2,26.0,30.13,East,92,0.0,-999.0,91,-99.99,,,0.00,0,weatherlink.com 1.10,2013-02-13 04:39:00,
2013-02-13 05:54:00,28.2,26.0,30.13,East,90,1.0,-999.0,91,-99.99,,,0.00,0,weatherlink.com 1.10,2013-02-13 04:54:00,
2013-02-13 06:09:00,28.1,26.0,30.14,ESE,108,1.0,-999.0,91,-99.99,,,0.00,0,weatherlink.com 1.10,2013-02-13 05:09:00,
2013-02-13 06:24:00,28.1,26.0,30.14,ESE,115,0.0,-999.0,91,-99.99,,,0.00,0,weatherlink.com 1.10,2013-02-13 05:24:00,
2013-02-13 06:39:00,28.1,26.0,30.15,NE,43,0.0,-999.0,91,-99.99,,,0.00,0,weatherlink.com 1.10,2013-02-13 05:39:00,
2013-02-13 06:54:00,28.0,26.0,30.16,East,95,0.0,-999.0,91,-99.99,,,0.00,0,weatherlink.com 1.10,2013-02-13 05:54:00,
2013-02-13 07:09:00,28.0,26.0,30.16,East,98,0.0,-999.0,91,-99.99,,,0.00,0,weatherlink.com 1.10,2013-02-13 06:09:00,
2013-02-13 07:24:00,27.9,26.0,30.16,East,97,1.0,-999.0,91,-99.99,,,0.00,0,weatherlink.com 1.10,2013-02-13 06:24:00,
2013-02-13 07:39:00,27.9,26.0,30.17,NNE,19,0.0,-999.0,91,-99.99,,,0.00,0,weatherlink.com 1.10,2013-02-13 06:39:00,
2013-02-13 07:54:00,27.9,26.0,30.18,ENE,73,1.0,-999.0,91,-99.99,,,0.00,0,weatherlink.com 1.10,2013-02-13 06:54:00,
2013-02-13 08:09:00,27.8,26.0,30.18,NNE,17,0.0,-999.0,91,-99.99,,,0.00,0,weatherlink.com 1.10,2013-02-13 07:09:00,
2013-02-13 08:24:00,27.9,26.0,30.19,NE,42,0.0,-999.0,91,-99.99,,,0.00,7,weatherlink.com 1.10,2013-02-13 07:24:00,
2013-02-13 08:39:00,27.9,26.0,30.19,ESE,119,0.0,-999.0,91,-99.99,,,0.00,18,weatherlink.com 1.10,2013-02-13 07:39:00,
2013-02-13 08:54:00,28.1,26.0,30.20,ESE,102,0.0,-999.0,91,-99.99,,,0.00,25,weatherlink.com 1.10,2013-02-13 07:54:00,
2013-02-13 09:09:00,28.5,26.0,30.21,East,91,2.0,-999.0,91,-99.99,,,0.00,23,weatherlink.com 1.10,2013-02-13 08:09:00,
2013-02-13 09:24:00,28.7,26.0,30.22,East,83,0.0,-999.0,91,-99.99,,,0.00,28,weatherlink.com 1.10,2013-02-13 08:24:00,
2013-02-13 09:38:00,29.0,27.0,30.22,NNE,14,0.0,-999.0,91,-99.99,,,0.00,44,weatherlink.com 1.10,2013-02-13 08:38:00,
2013-02-13 09:54:00,29.5,27.0,30.23,ESE,121,1.0,-999.0,91,-99.99,,,0.00,40,weatherlink.com 1.10,2013-02-13 08:54:00,
2013-02-13 10:09:00,29.7,27.0,30.23,East,90,0.0,-999.0,91,-99.99,,,0.00,46,weatherlink.com 1.10,2013-02-13 09:09:00,
2013-02-13 10:24:00,30.0,28.0,30.24,SE,133,0.0,-999.0,91,-99.99,,,0.00,49,weatherlink.com 1.10,2013-02-13 09:24:00,
2013-02-13 10:39:00,30.3,28.0,30.25,ENE,67,1.0,-999.0,91,-99.99,,,0.00,47,weatherlink.com 1.10,2013-02-13 09:39:00,
2013-02-13 10:54:00,30.6,28.0,30.25,ENE,73,1.0,-999.0,91,-99.99,,,0.00,65,weatherlink.com 1.10,2013-02-13 09:54:00,
2013-02-13 11:09:00,31.0,29.0,30.26,ENE,71,0.0,-999.0,90,-99.99,,,0.00,62,weatherlink.com 1.10,2013-02-13 10:09:00,
2013-02-13 11:24:00,31.5,29.0,30.26,East,82,0.0,-999.0,90,-99.99,,,0.00,83,weatherlink.com 1.10,2013-02-13 10:24:00,
2013-02-13 11:39:00,31.9,29.0,30.27,NE,38,1.0,-999.0,88,-99.99,,,0.00,63,weatherlink.com 1.10,2013-02-13 10:39:00,
2013-02-13 11:54:00,31.9,29.0,30.27,East,80,2.0,-999.0,87,-99.99,,,0.01,90,weatherlink.com 1.10,2013-02-13 10:54:00,
2013-02-13 12:09:00,31.8,28.0,30.27,ENE,64,0.0,-999.0,87,-99.99,,,0.02,137,weatherlink.com 1.10,2013-02-13 11:09:00,
2013-02-13 12:24:00,32.3,28.0,30.27,NNE,19,2.0,-999.0,85,-99.99,,,0.03,221,weatherlink.com 1.10,2013-02-13 11:24:00,
2013-02-13 12:39:00,31.7,27.0,30.28,ESE,118,1.0,-999.0,83,-99.99,,,0.04,221,weatherlink.com 1.10,2013-02-13 11:39:00,
2013-02-13 12:54:00,31.4,27.0,30.27,NNE,26,0.0,-999.0,83,-99.99,,,0.04,190,weatherlink.com 1.10,2013-02-13 11:54:00,
2013-02-13 13:09:00,31.2,26.0,30.28,North,350,1.0,-999.0,81,-99.99,,,0.05,146,weatherlink.com 1.10,2013-02-13 12:09:00,
2013-02-13 13:24:00,31.2,26.0,30.29,NW,319,0.0,-999.0,81,-99.99,,,0.06,179,weatherlink.com 1.10,2013-02-13 12:24:00,
2013-02-13 13:39:00,31.4,26.0,30.29,North,358,2.0,-999.0,81,-99.99,,,0.06,156,weatherlink.com 1.10,2013-02-13 12:39:00,
2013-02-13 13:54:00,31.4,26.0,30.29,NE,35,0.0,-999.0,81,-99.99,,,0.07,98,weatherlink.com 1.10,2013-02-13 12:54:00,
2013-02-13 14:08:00,31.3,26.0,30.30,NNE,15,1.0,-999.0,81,-99.99,,,0.07,105,weatherlink.com 1.10,2013-02-13 13:08:00,
2013-02-13 14:24:00,31.3,26.0,30.31,NNE,19,1.0,-999.0,81,-99.99,,,0.07,77,weatherlink.com 1.10,2013-02-13 13:24:00,
2013-02-13 14:39:00,31.3,26.0,30.31,ENE,68,0.0,-999.0,81,-99.99,,,0.08,63,weatherlink.com 1.10,2013-02-13 13:39:00,
2013-02-13 14:54:00,31.3,26.0,30.31,NNE,19,1.0,-999.0,82,-99.99,,,0.08,47,weatherlink.com 1.10,2013-02-13 13:54:00,
2013-02-13 15:08:00,31.3,26.0,30.31,North,6,0.0,-999.0,81,-99.99,,,0.08,76,weatherlink.com 1.10,2013-02-13 14:08:00,
2013-02-13 15:24:00,31.2,26.0,30.32,NE,47,1.0,-999.0,82,-99.99,,,0.08,51,weatherlink.com 1.10,2013-02-13 14:24:00,
2013-02-13 15:39:00,31.2,26.0,30.33,NNE,19,0.0,-999.0,82,-99.99,,,0.08,23,weatherlink.com 1.10,2013-02-13 14:39:00,
2013-02-13 15:54:00,31.0,26.0,30.33,NNE,14,0.0,-999.0,82,-99.99,,,0.08,19,weatherlink.com 1.10,2013-02-13 14:54:00,
2013-02-13 16:09:00,30.9,26.0,30.33,ESE,122,2.0,-999.0,83,-99.99,,,0.08,28,weatherlink.com 1.10,2013-02-13 15:09:00,
2013-02-13 16:24:00,30.8,26.0,30.34,ENE,69,0.0,-999.0,83,-99.99,,,0.08,25,weatherlink.com 1.10,2013-02-13 15:24:00,
2013-02-13 16:39:00,30.7,26.0,30.34,ENE,69,0.0,-999.0,83,-99.99,,,0.08,9,weatherlink.com 1.10,2013-02-13 15:39:00,
2013-02-13 16:54:00,30.5,26.0,30.35,ENE,69,0.0,-999.0,83,-99.99,,,0.08,5,weatherlink.com 1.10,2013-02-13 15:54:00,
2013-02-13 17:09:00,30.4,26.0,30.35,NE,38,0.0,-999.0,83,-99.99,,,0.08,0,weatherlink.com 1.10,2013-02-13 16:09:00,
2013-02-13 17:24:00,30.2,26.0,30.35,East,85,0.0,-999.0,83,-99.99,,,0.08,0,weatherlink.com 1.10,2013-02-13 16:24:00,
2013-02-13 17:39:00,29.9,26.0,30.36,East,101,0.0,-999.0,84,-99.99,,,0.08,0,weatherlink.com 1.10,2013-02-13 16:39:00,
2013-02-13 17:54:00,29.7,25.0,30.36,North,354,0.0,-999.0,84,-99.99,,,0.08,0,weatherlink.com 1.10,2013-02-13 16:54:00,
2013-02-13 18:08:00,29.6,25.0,30.37,North,4,0.0,-999.0,84,-99.99,,,0.08,0,weatherlink.com 1.10,2013-02-13 17:08:00,
2013-02-13 18:24:00,29.4,25.0,30.37,East,95,0.0,-999.0,84,-99.99,,,0.08,0,weatherlink.com 1.10,2013-02-13 17:24:00,
2013-02-13 18:39:00,29.3,25.0,30.38,East,100,0.0,-999.0,84,-99.99,,,0.08,0,weatherlink.com 1.10,2013-02-13 17:39:00,
2013-02-13 18:54:00,29.2,25.0,30.38,East,100,0.0,-999.0,84,-99.99,,,0.08,0,weatherlink.com 1.10,2013-02-13 17:54:00,
2013-02-13 19:09:00,29.1,25.0,30.38,East,87,2.0,-999.0,85,-99.99,,,0.08,0,weatherlink.com 1.10,2013-02-13 18:09:00,
2013-02-13 19:24:00,29.0,25.0,30.38,ENE,60,2.0,-999.0,85,-99.99,,,0.08,0,weatherlink.com 1.10,2013-02-13 18:24:00,
2013-02-13 19:38:00,29.0,25.0,30.38,East,94,0.0,-999.0,85,-99.99,,,0.08,0,weatherlink.com 1.10,2013-02-13 18:38:00,
2013-02-13 19:54:00,28.9,25.0,30.39,East,86,0.0,-999.0,85,-99.99,,,0.08,0,weatherlink.com 1.10,2013-02-13 18:54:00,
2013-02-13 20:09:00,28.9,25.0,30.39,ESE,104,0.0,-999.0,85,-99.99,,,0.08,0,weatherlink.com 1.10,2013-02-13 19:09:00,
2013-02-13 20:24:00,28.8,25.0,30.39,NNE,18,0.0,-999.0,85,-99.99,,,0.08,0,weatherlink.com 1.10,2013-02-13 19:24:00,
2013-02-13 20:38:00,28.8,25.0,30.39,NNW,333,0.0,-999.0,85,-99.99,,,0.08,0,weatherlink.com 1.10,2013-02-13 19:38:00,
2013-02-13 20:54:00,28.8,25.0,30.39,North,7,0.0,-999.0,85,-99.99,,,0.08,0,weatherlink.com 1.10,2013-02-13 19:54:00,
2013-02-13 21:09:00,28.8,27.0,30.40,NE,51,1.0,-999.0,92,-99.99,,,0.08,0,weatherlink.com 1.10,2013-02-13 20:09:00,
2013-02-13 21:24:00,28.8,27.0,30.40,NE,43,0.0,-999.0,92,-99.99,,,0.08,0,weatherlink.com 1.10,2013-02-13 20:24:00,
2013-02-13 21:39:00,28.8,25.0,30.41,North,11,0.0,-999.0,86,-99.99,,,0.08,0,weatherlink.com 1.10,2013-02-13 20:39:00,
2013-02-13 21:54:00,28.7,25.0,30.41,East,79,0.0,-999.0,86,-99.99,,,0.08,0,weatherlink.com 1.10,2013-02-13 20:54:00,
2013-02-13 22:09:00,28.7,25.0,30.41,North,360,0.0,-999.0,86,-99.99,,,0.08,0,weatherlink.com 1.10,2013-02-13 21:09:00,
2013-02-13 22:24:00,28.6,25.0,30.41,NNE,17,0.0,-999.0,86,-99.99,,,0.08,0,weatherlink.com 1.10,2013-02-13 21:24:00,
2013-02-13 22:39:00,28.6,25.0,30.41,ESE,117,0.0,-999.0,86,-99.99,,,0.08,0,weatherlink.com 1.10,2013-02-13 21:39:00,
2013-02-13 22:54:00,28.5,25.0,30.41,NNE,26,0.0,-999.0,87,-99.99,,,0.08,0,weatherlink.com 1.10,2013-02-13 21:54:00,
2013-02-13 23:09:00,28.5,25.0,30.41,NE,37,0.0,-999.0,87,-99.99,,,0.08,0,weatherlink.com 1.10,2013-02-13 22:09:00,
2013-02-13 23:24:00,28.4,25.0,30.41,NE,37,0.0,-999.0,87,-99.99,,,0.08,0,weatherlink.com 1.10,2013-02-13 22:24:00,
2013-02-13 23:39:00,28.4,25.0,30.42,East,96,0.0,-999.0,87,-99.99,,,0.08,0,weatherlink.com 1.10,2013-02-13 22:39:00,
2013-02-13 23:54:00,28.3,25.0,30.41,East,96,0.0,-999.0,87,-99.99,,,0.08,0,weatherlink.com 1.10,2013-02-13 22:54:00,